sat.trackr.live / text

‹ back to catalog

STARLINK-32014

NORAD 60150 · 2024-120R

PAYLOAD ACTIVE UNKNOWN

§ Identity

Operator
Country
US
Launch date
2024-06-27
Launch site
AFETR
Launch vehicle
Mass (kg)
RCS (m²)

Purposes: comms

External: N2YO · Heavens-Above · Gunter

§ Orbital elements

Epoch: 2026-05-24T21:11:02.725152Z

Period
94.11 min
Inclination
53.1610°
Eccentricity
0.0000967
Mean motion
15.30196714 rev/d
Perigee alt
474.6 km
Apogee alt
475.9 km
Semi-major
6,853.4 km
B*
-8.1035e-5
RAAN
325.8727°
Arg perigee
90.4417°
Mean anomaly
269.6694°
Rev number
10,804

§ Raw data

STARLINK-320141 60150U 24120R   26144.88267043 -.00002758  00000+0 -81035-4 0  99902 60150  53.1610 325.8727 0000967  90.4417 269.6694 15.30196714108043

JSON: /api/v1/satellites/60150 · /tle

For live sub-satellite position, see the globe view (requires WebGL).

§ Visibility from observer

Set your observer location to see the next 7 days of passes ≥ 10°. The values pass through the URL so the page stays shareable.

No JS? Fill the form by hand. The geolocation button needs JavaScript.